Cherry Point, NC

2:46 PM EDT on September 25, 2016 (GMT -0400)
Cherry Point Marine Corps Air Station

Weather History for KNKT - February, 2014

Change the Weather History Date:

Monday, February 3, 2014

  Actual Average Record
Temperature  
Mean Temperature 56 °F -  
Max Temperature 70 °F 53 °F 73 °F (2016)
Min Temperature 42 °F 34 °F 19 °F (2000)
Degree Days  
Heating Degree Days 9    
Growing Degree Days 6 (Base 50)    
Moisture  
Dew Point 51 °F    
Average Humidity 84    
Maximum Humidity 96    
Minimum Humidity 76    
Precipitation  
Precipitation 0.00 in - - ()
Sea Level Pressure  
Sea Level Pressure 30.06 in    
Wind  
Wind Speed 9 mph (SW)    
Max Wind Speed 23 mph    
Max Gust Speed 37 mph    
Visibility 9 miles    
Events Fog    
Averages and records for this station are not official NWS values.
T = Trace of Precipitation, MM = Missing Value Source: NWS Daily Summary

Daily Weather History Graph

Daily Weather History Graph

Search for Another Location

Airport or City:

Trip Planner

Search our weather history database for the weather conditions in past years. The results will help you decide how hot, cold, wet, or windy it might be!

Date:

Astronomy

Feb. 03, 2014 Rise Set
Actual Time 7:04 AM EST 5:38 PM EST
Civil Twilight 6:38 AM EST 6:05 PM EST
Nautical Twilight 6:08 AM EST 6:35 PM EST
Astronomical Twilight 5:38 AM EST 7:04 PM EST
Moon 9:17 AM EST (2/3) 10:13 PM EST (2/3)
Length of Visible Light 11h 26m
Length of Day
10h 33m
Waxing Crescent, 19% of the Moon is Illuminated
Feb 3
Waxing Crescent
Feb 6
First Quarter
Feb 14
Full
Feb 22
Last Quarter
Mar 1
New

Hourly Weather History & Observations

Time (EST) Temp. Windchill Dew Point Humidity Pressure Visibility Wind Dir Wind Speed Gust Speed Precip Events Conditions
12:54 AM 48.0 °F - 45.0 °F 89% 30.06 in 10.0 mi Calm Calm - N/A   Clear
1:54 AM 46.9 °F - 44.1 °F 90% 30.04 in 10.0 mi Calm Calm - N/A   Clear
2:54 AM 52.0 °F - 48.0 °F 86% 30.04 in 10.0 mi SSW 3.5 mph - N/A   Clear
3:54 AM 51.1 °F - 48.0 °F 89% 30.03 in 10.0 mi Calm Calm - N/A   Clear
4:54 AM 52.0 °F - 50.0 °F 93% 30.01 in 10.0 mi South 5.8 mph - N/A   Clear
5:54 AM 51.1 °F - 48.9 °F 92% 30.01 in 1.8 mi SSE 4.6 mph - N/A   Clear
6:54 AM 50.0 °F - 48.9 °F 96% 30.00 in 1.0 mi SSE 4.6 mph - N/A   Scattered Clouds
7:13 AM 50.0 °F - 48.9 °F 96% 30.01 in 0.5 mi South 3.5 mph - N/A Fog Fog
7:54 AM 57.0 °F - 55.0 °F 93% 30.00 in 10.0 mi South 6.9 mph - N/A   Overcast
8:54 AM 66.0 °F - 62.1 °F 87% 30.01 in 10.0 mi SW 13.8 mph 19.6 mph N/A   Overcast
9:09 AM 66.9 °F - 63.0 °F 87% 30.02 in 10.0 mi SW 15.0 mph 21.9 mph N/A   Overcast
9:54 AM 68.0 °F - 64.0 °F 87% 30.01 in 10.0 mi SW 18.4 mph 36.8 mph N/A   Overcast
10:54 AM 70.0 °F - 64.9 °F 84% 29.99 in 10.0 mi SW 18.4 mph 35.7 mph N/A   Mostly Cloudy
11:54 AM 69.1 °F - 64.0 °F 84% 29.98 in 10.0 mi SW 23.0 mph 32.2 mph N/A   Overcast
12:03 PM 70.0 °F - 64.0 °F 81% 29.98 in 10.0 mi SW 18.4 mph 35.7 mph N/A   Overcast
12:54 PM 68.0 °F - 63.0 °F 84% 29.95 in 10.0 mi SW 21.9 mph 29.9 mph N/A   Overcast
1:54 PM 68.0 °F - 62.1 °F 81% 29.94 in 10.0 mi SW 12.7 mph - N/A   Overcast
2:54 PM 69.1 °F - 62.1 °F 78% 29.94 in 10.0 mi SSW 10.4 mph - N/A   Overcast
3:54 PM 66.9 °F - 60.1 °F 79% 29.96 in 10.0 mi SSW 9.2 mph - N/A   Overcast
4:54 PM 64.0 °F - 57.9 °F 80% 29.98 in 10.0 mi South 6.9 mph - N/A   Overcast
5:43 PM 57.9 °F - 52.0 °F 81% 30.05 in 10.0 mi NNW 21.9 mph - N/A   Overcast
5:54 PM 55.9 °F - 50.0 °F 80% 30.06 in 10.0 mi North 17.3 mph - N/A   Mostly Cloudy
6:03 PM 55.0 °F - 48.9 °F 80% 30.08 in 10.0 mi North 16.1 mph - N/A   Mostly Cloudy
6:25 PM 53.1 °F - 48.0 °F 83% 30.11 in 10.0 mi North 15.0 mph - N/A   Overcast
6:54 PM 51.1 °F - 46.0 °F 83% 30.12 in 10.0 mi NNE 10.4 mph - N/A   Overcast
7:01 PM 50.0 °F - 46.0 °F 86% 30.13 in 10.0 mi NNE 12.7 mph - N/A   Overcast
7:35 PM 50.0 °F - 45.0 °F 83% 30.15 in 10.0 mi NE 13.8 mph - N/A   Overcast
7:54 PM 48.9 °F - 43.0 °F 80% 30.15 in 10.0 mi NNE 17.3 mph 24.2 mph N/A   Overcast
8:54 PM 46.9 °F - 41.0 °F 80% 30.18 in 10.0 mi NNE 13.8 mph - N/A   Overcast
9:54 PM 46.0 °F 39.3 °F 39.9 °F 79% 30.21 in 10.0 mi NNE 16.1 mph - N/A   Overcast
10:54 PM 43.0 °F 36.4 °F 36.0 °F 76% 30.22 in 10.0 mi NNE 12.7 mph - N/A   Overcast
11:36 PM 42.1 °F 34.5 °F 35.1 °F 76% 30.25 in 10.0 mi NNE 15.0 mph - N/A   Mostly Cloudy
11:54 PM 42.1 °F 34.9 °F 35.1 °F 76% 30.25 in 10.0 mi North 13.8 mph - N/A   Overcast